EHI
0 0 0 0 0 0 0 0 0 0 0 0 0 0 0 0 0 0 0 0 0 0 0 0 0 0 0 0 0 0 0 0 0 0 0 0 0 0 0 0 0 0 0
0 0 0 0 0 0 0 0 0 0 0 0 0 0 0 0 0 0 0 0 0 0 0 0 0 0 0 0 0 0 0 0 0 0 0 0 0 0 0 0 0 0 0
0 0 0 0 0 0 0 0 0 0 0 0 0 0 0 0 0 0 0 0 0 0 0 0 0 0 0 0 0 0 0 0 0 0 0 0 0 0 0 0 0 0 0
0 0 0 0 0 0 0 0 0 0 0 0 0 0 0 0 0 0 0 0 0 0 0 0 0 0 0 0 0 0 0 0 0 0 0 0 0 0 0 0 0 0 0
1 0 0 0 0 0 0 0 0 0 0 0 0 0 0 0 0 0 0 0 0 0 0 0 0 0 0 0 0 0 0 0 0 0 0 0 0 0 0 0 0 0 0
4 2 0 0 0 0 0 0 0 0 0 0 0 0 0 0 0 0 0 0 0 0 0 0 0 0 0 0 0 0 0 0 0 0 0 2 5 6 2 0 0 0 0
11 5 0 0 0 0 0 0 0 0 0 0 0 0 0 0 0 0 0 0 0 0 0 0 0 0 0 0 0 0 0 0 0 0 0 9 25 28 14 3 0 0 0
20 9 0 0 0 0 0 0 0 0 0 0 0 0 0 0 0 0 0 0 0 0 0 0 0 0 0 0 0 0 0 0 0 0 0 18 51 62 40 17 5 2 1
23 10 0 0 0 0 0 0 0 0 0 0 0 0 0 0 0 0 0 0 0 0 0 0 0 0 0 0 0 0 0 0 0 0 0 23 66 85 67 42 21 11 8
19 8 0 0 0 0 0 0 0 0 0 0 0 0 0 0 1 1 2 2 2 1 1 0 0 0 0 0 0 0 0 0 0 0 2 28 73 92 78 57 37 24 20
10 5 3 2 1 0 0 1 0 0 0 0 0 0 0 0 1 3 8 14 14 6 2 0 0 0 0 0 0 0 0 0 0 0 9 42 81 92 77 58 40 30 29
4 4 8 10 5 0 2 2 1 4 6 4 2 3 2 0 1 3 14 29 24 9 2 0 0 0 0 0 0 0 0 0 0 0 16 55 87 90 76 55 36 26 25
2 2 13 19 10 1 2 2 1 10 17 12 9 11 4 0 1 6 19 28 20 6 1 0 0 0 0 0 0 0 0 0 0 1 18 51 75 74 62 45 28 17 14
1 3 15 24 14 2 1 2 1 9 17 14 15 14 5 1 4 11 21 22 11 3 1 1 0 0 0 0 0 0 0 0 0 1 14 34 46 44 35 25 15 8 5
0 5 21 33 27 13 6 4 2 4 7 9 13 13 6 5 10 15 18 15 8 3 3 2 1 0 0 0 0 0 0 0 0 1 10 24 34 32 23 12 6 3 2
2 13 33 48 51 39 20 8 3 2 3 4 10 15 13 11 15 18 16 10 5 4 4 3 1 0 0 0 0 0 1 0 0 0 5 19 34 41 33 16 4 1 1
15 31 47 52 62 65 45 20 8 4 7 10 17 27 29 21 21 25 21 14 10 8 6 3 0 0 0 0 0 1 4 7 5 2 2 9 21 37 43 31 15 5 1
46 60 59 44 55 78 74 47 22 14 21 32 41 50 50 38 35 40 34 26 23 18 11 5 1 1 0 0 0 1 7 17 17 9 3 3 10 22 35 40 33 20 9
78 84 72 47 54 80 90 74 44 32 40 52 62 69 68 59 58 62 54 42 34 29 20 9 5 3 2 0 0 1 6 20 29 22 11 8 15 20 19 25 33 26 15
94 95 87 71 68 82 93 89 72 58 55 58 64 70 72 71 75 78 70 55 46 40 29 18 11 7 3 1 0 0 2 15 34 35 20 11 16 19 10 7 13 13 10
99 99 97 92 88 90 95 95 91 82 70 61 58 59 62 67 72 74 72 68 61 51 38 26 18 11 4 1 0 0 0 10 27 34 24 12 9 9 4 0 1 1 2
100 100 100 99 98 97 97 98 97 93 81 66 58 57 57 57 56 57 67 74 70 57 42 30 23 15 6 2 1 0 0 5 13 17 18 14 5 1 0 0 0 0 0
98 98 98 99 98 97 97 97 95 90 80 69 65 64 61 54 49 51 62 71 68 57 42 29 21 13 7 4 3 1 0 1 2 4 8 12 10 5 1 0 0 0 1
92 93 94 95 95 94 94 94 93 89 83 78 76 74 68 61 55 54 58 63 63 55 41 26 17 12 8 4 2 1 0 0 0 0 2 8 12 8 2 1 0 2 3
80 80 84 88 89 86 85 86 89 90 89 87 84 80 76 70 63 54 51 53 53 47 36 23 15 12 8 4 2 0 0 0 0 0 1 3 6 6 5 3 2 2 4
67 69 73 81 83 78 76 78 83 90 91 88 86 83 80 77 66 51 43 43 42 38 31 19 12 10 7 5 2 1 0 0 0 0 0 0 0 3 6 6 3 2 3
Wind_Speed
17 16 16 14 12 12 13 13 12 11 10 10 9 9 9 10 10 10 10 9 9 10 9 8 7 6 6 7 8 9 10 11 12 12 11 11 10 8 8 8 9 10 11
20 17 16 14 12 11 11 11 11 10 10 9 9 8 8 9 9 9 9 8 8 9 8 8 7 6 6 7 7 8 8 9 9 10 10 10 9 7 7 8 10 8 9
19 17 16 13 12 11 10 10 11 10 10 9 9 8 8 8 9 8 8 7 7 7 7 6 6 6 6 7 7 7 7 7 7 8 10 8 8 8 8 9 11 10 8
19 16 15 15 13 11 10 9 10 11 10 10 9 9 8 8 8 8 8 7 7 6 5 5 5 5 6 7 7 7 6 6 6 7 7 6 8 10 8 8 8 8 7
18 17 16 15 13 12 10 9 9 10 10 9 8 9 8 8 7 7 7 7 6 6 5 4 4 5 5 6 6 6 6 6 7 9 9 5 8 12 11 8 6 6 6
19 18 16 16 14 12 11 10 9 9 10 9 8 7 7 7 6 6 6 6 5 5 4 4 3 4 5 6 6 6 6 7 8 9 9 3 8 12 12 9 7 5 5
19 18 16 16 15 13 12 11 10 10 9 8 7 7 7 5 5 5 5 4 4 3 3 3 3 3 4 5 6 6 7 8 9 9 8 3 9 14 13 11 8 7 7
20 18 16 16 15 13 12 12 11 10 9 9 8 7 7 6 4 4 4 3 3 2 2 2 3 3 5 6 6 7 7 9 9 10 8 2 14 15 14 12 9 9 9
20 17 14 14 13 13 12 11 11 10 10 9 9 8 7 6 6 6 6 6 5 5 4 5 5 5 6 7 7 8 9 10 9 8 9 1 14 14 13 12 11 10 11
18 16 15 14 12 11 11 11 11 10 10 9 8 8 8 8 9 10 9 10 9 8 7 7 7 8 8 8 9 10 11 10 10 10 7 5 14 13 13 12 11 12 12
13 13 14 14 12 12 12 13 12 10 10 9 9 10 8 8 10 10 13 12 12 10 9 9 9 9 9 10 12 13 11 7 10 9 7 8 14 14 12 12 11 12 13
10 11 11 13 12 11 10 10 8 9 9 9 8 9 8 7 6 5 9 13 13 11 10 10 10 9 9 8 12 14 7 10 10 8 5 12 14 13 12 11 11 11 12
8 9 8 11 8 9 6 9 6 6 7 8 8 9 7 5 4 4 5 7 7 8 7 8 9 7 8 7 4 7 9 8 4 4 2 10 11 10 10 10 10 11 12
10 10 8 10 6 4 5 6 4 4 6 6 7 7 5 3 2 0 1 3 3 3 4 4 4 6 7 7 6 6 8 5 4 2 4 9 9 10 11 11 11 12 13
9 9 8 8 7 4 2 1 4 3 4 4 3 5 4 2 3 1 0 0 2 3 4 3 3 4 4 4 4 5 5 5 5 3 3 10 12 13 13 12 12 13 13
12 11 9 8 8 5 3 2 2 2 1 2 3 6 6 2 1 1 1 1 3 2 1 2 4 3 3 3 4 5 5 5 5 4 4 7 14 14 14 13 13 13 14
13 11 9 9 8 7 6 6 4 4 4 3 3 4 5 4 2 2 1 2 2 2 2 2 4 3 4 5 5 6 5 5 4 5 5 4 5 12 15 14 14 13 14
11 9 9 10 10 9 7 5 4 3 2 1 2 3 5 4 2 2 1 2 1 2 2 2 3 3 4 4 4 5 4 4 6 6 5 5 5 4 9 16 15 14 15
9 9 9 7 9 10 9 6 5 3 1 0 1 2 4 4 4 3 2 2 2 1 2 4 2 3 3 4 5 6 5 5 6 7 7 6 4 3 4 8 15 15 16
9 8 8 7 6 7 7 5 4 4 3 2 1 2 3 3 3 2 2 3 2 1 1 2 3 3 3 3 6 7 5 5 5 6 6 5 5 6 5 3 5 9 14
10 9 7 7 6 5 4 5 6 5 4 3 2 3 3 3 3 3 3 3 3 2 2 2 2 3 3 3 3 5 7 8 6 4 4 4 3 4 4 5 4 2 3
5 6 6 6 5 5 4 3 3 3 3 4 4 4 5 5 4 5 4 3 3 2 3 2 2 2 3 3 2 3 4 5 2 4 5 5 5 3 4 5 5 5 4
3 2 2 2 2 3 4 3 3 2 3 4 5 5 6 7 7 6 5 4 4 4 3 3 3 4 4 3 3 3 3 3 3 4 5 5 4 3 4 4 4 5 4
6 6 5 5 3 1 1 2 4 4 5 5 4 5 6 7 8 7 6 6 5 4 4 4 4 3 4 4 3 3 5 4 3 4 3 3 5 5 5 3 3 2 0
7 7 6 6 6 4 2 1 2 2 3 3 3 4 4 5 6 7 7 6 5 4 4 4 2 2 2 3 4 4 5 4 5 4 4 3 3 4 5 5 3 1 2
5 4 5 5 4 3 3 3 2 3 3 4 4 4 3 3 3 5 5 5 4 4 4 3 2 2 3 4 5 5 5 4 4 4 5 5 4 4 4 3 1 2 3
Wind_Direction
114 120 123 121 123 131 140 143 144 143 141 136 127 117 107 101 96 93 92 99 110 111 107 106 112 115 111 100 96 97 99 101 104 109 110 108 104 97 86 95 115 96 99
115 120 121 120 122 127 138 146 146 145 144 141 136 128 118 108 101 97 96 101 112 115 109 104 107 115 129 128 121 118 117 119 126 131 130 121 115 105 90 72 83 108 111
114 121 122 119 119 120 127 143 150 149 148 147 146 137 126 115 108 104 102 102 110 119 118 112 108 113 129 140 141 142 141 146 159 165 165 155 133 122 104 94 100 116 117
121 130 123 123 122 120 120 131 149 151 151 153 152 139 129 123 118 113 109 107 112 120 128 130 126 125 131 144 153 160 166 176 198 206 214 187 150 137 128 116 119 126 127
124 121 124 129 126 125 122 122 136 150 151 153 149 139 133 130 126 120 117 115 114 119 129 136 147 147 149 156 166 177 189 204 229 242 249 224 138 147 144 137 139 143 145
125 124 131 133 133 132 130 127 127 138 147 148 145 141 135 134 131 125 127 123 116 114 119 131 147 160 168 173 182 195 208 224 246 249 255 225 132 155 152 152 161 171 174
126 126 133 137 137 138 137 135 134 137 142 145 144 140 131 131 132 130 129 129 127 123 123 132 155 173 185 192 198 207 223 240 254 269 264 202 136 157 161 164 178 194 200
126 127 132 138 140 142 144 145 145 145 146 145 142 140 139 146 155 161 164 165 168 174 178 187 197 203 207 210 216 220 230 251 251 260 273 174 151 163 166 172 188 206 212
126 129 142 143 146 149 151 152 152 152 151 151 150 152 159 172 187 200 205 209 215 223 227 225 223 222 223 222 227 233 239 249 272 279 281 153 158 165 170 179 196 213 219
128 139 147 152 153 158 161 163 163 164 166 168 171 177 188 203 214 220 220 215 220 225 231 235 235 234 231 230 232 237 242 253 256 262 263 182 165 171 178 188 204 219 224
135 142 151 153 160 168 170 164 170 178 182 185 191 200 209 223 222 216 225 212 210 219 229 236 239 241 241 236 234 234 237 241 248 245 247 193 174 180 188 197 210 223 229
144 149 154 152 164 177 176 152 179 183 181 200 197 192 207 229 243 206 199 190 202 216 227 234 240 245 242 245 230 224 233 235 247 252 236 180 180 187 195 204 216 227 234
156 164 156 148 168 179 163 159 192 185 164 199 203 186 211 231 218 167 164 175 200 217 225 228 224 231 231 235 237 204 230 248 243 256 238 175 181 191 206 220 231 240 244
174 175 165 149 169 202 182 169 184 181 163 195 178 185 201 201 280 350 126 145 188 214 215 233 222 227 238 242 241 213 225 241 254 235 159 170 185 203 222 234 241 247 250
181 178 162 152 162 196 237 215 186 209 174 184 162 172 239 212 189 190 119 117 247 210 206 240 251 244 243 251 264 258 245 251 259 263 182 190 202 213 227 240 246 251 254
182 182 166 167 163 174 191 234 284 239 184 228 175 170 184 235 185 139 166 195 284 287 224 219 261 255 263 264 259 255 240 249 247 243 235 216 216 219 226 235 243 248 255
182 181 167 173 173 175 195 201 225 235 217 204 200 174 166 199 206 174 206 214 252 295 311 282 288 280 264 261 253 249 235 232 248 248 248 249 232 221 223 230 237 241 248
180 172 176 185 182 180 193 201 222 239 257 174 170 161 166 193 195 165 209 233 244 263 272 270 254 270 272 273 270 258 236 208 226 239 239 231 230 233 216 226 232 237 244
176 165 175 198 183 184 190 195 222 237 280 350 128 127 150 170 181 166 196 239 255 259 266 277 276 241 267 272 273 256 238 222 214 228 229 233 227 217 228 224 218 231 243
175 167 174 189 198 182 181 187 206 221 221 219 184 160 154 164 167 161 195 230 245 237 233 263 289 274 276 285 290 298 273 240 213 218 221 231 214 208 223 220 202 232 236
173 173 179 189 192 192 192 196 200 206 208 218 219 202 188 190 190 196 218 212 217 227 228 241 268 286 270 264 286 295 290 261 220 205 212 236 228 214 215 215 214 226 227
157 166 180 198 201 200 205 211 214 209 210 215 225 222 220 222 226 233 225 220 217 228 244 243 237 249 267 259 249 287 290 298 284 226 201 200 217 222 238 236 197 206 223
72 131 178 179 201 218 220 214 226 216 224 224 227 230 230 231 232 237 239 232 226 223 229 235 236 239 254 265 238 239 267 280 294 261 216 206 181 204 242 244 218 213 214
49 63 69 70 68 57 208 208 226 227 235 241 239 240 234 232 236 231 228 229 229 228 227 236 236 230 243 262 272 242 239 257 273 303 281 232 190 208 228 250 268 262 133
53 59 67 71 66 55 49 91 262 267 280 290 282 264 252 241 236 237 230 230 228 226 226 229 246 246 249 258 264 269 268 256 242 248 273 282 250 227 210 216 221 184 72
61 69 79 84 81 74 62 58 36 9 349 336 331 316 299 277 256 251 248 241 234 224 222 214 220 260 265 273 272 262 258 252 247 239 252 267 263 251 208 188 169 109 82